This is the latest recevied weather packets stored in our database for station/object KE8ZLU. If no packets are shown the sender has not sent any weather packets the latest 10 day(s).
| Time | Temp. | Humidity | Pressure | Rain* | Wind** | Luminosity | Snow |
|---|---|---|---|---|---|---|---|
| 1777656832 | 8.33° C | 56% | 1015.5 hPa | 0 mm | - | 420 W/m² | - |
| 1777656527 | 9.44° C | 57% | 1015.4 hPa | 0 mm | - | 339 W/m² | - |
| 1777656222 | 8.33° C | 57% | 1015.4 hPa | 0 mm | - | 494 W/m² | - |
| 1777655918 | 8.33° C | 55% | 1015.6 hPa | 0 mm | - | 452 W/m² | - |
| 1777655615 | 7.78° C | 56% | 1015.6 hPa | 0 mm | - | 351 W/m² | - |
| 1777655312 | 7.78° C | 56% | 1015.7 hPa | 0 mm | - | 370 W/m² | - |
| 1777655009 | 7.78° C | 58% | 1015.5 hPa | 0 mm | - | 338 W/m² | - |
| 1777654706 | 8.33° C | 56% | 1015.5 hPa | 0 mm | - | 272 W/m² | - |
| 1777654404 | 7.78° C | 59% | 1015.4 hPa | 0 mm | - | 262 W/m² | - |
| 1777654101 | 7.78° C | 56% | 1015.4 hPa | 0 mm | - | 274 W/m² | - |
| 1777653799 | 7.78° C | 55% | 1015.4 hPa | 0 mm | - | 320 W/m² | - |
| 1777653494 | 7.78° C | 57% | 1015.5 hPa | 0 mm | - | 263 W/m² | - |
| 1777653192 | 7.78° C | 56% | 1015.3 hPa | 0 mm | - | 192 W/m² | - |
| 1777652889 | 7.78° C | 57% | 1015.3 hPa | 0 mm | - | 379 W/m² | - |
| 1777652585 | 8.33° C | 58% | 1015.5 hPa | 0 mm | - | 316 W/m² | - |
| 1777652281 | 7.78° C | 57% | 1015.4 hPa | 0 mm | - | 317 W/m² | - |
| 1777651979 | 7.78° C | 57% | 1015.5 hPa | 0 mm | - | 278 W/m² | - |
| 1777651675 | 8.33° C | 57% | 1015.5 hPa | 0 mm | - | 273 W/m² | - |
| 1777651372 | 7.78° C | 55% | 1015.6 hPa | 0 mm | - | 421 W/m² | - |
| 1777651070 | 7.78° C | 56% | 1015.4 hPa | 0 mm | - | 289 W/m² | - |
| 1777650766 | 7.78° C | 59% | 1015.4 hPa | 0 mm | - | 295 W/m² | - |
| 1777650463 | 8.33° C | 60% | 1015.4 hPa | 0 mm | - | 556 W/m² | - |
| 1777650160 | 8.33° C | 60% | 1015.4 hPa | 0 mm | - | 470 W/m² | - |
| 1777649858 | 7.78° C | 61% | 1015.3 hPa | 0 mm | - | 276 W/m² | - |
| 1777649555 | 8.33° C | 63% | 1015.2 hPa | 0 mm | - | 234 W/m² | - |
* Rain latest hour (hover to see other rain measurements)
** Current wind speed in m/s (hover to see current wind gust speed)